Overview Statistics Trail Chart Weather Telemetry Raw packets
 

This is the latest recevied weather packets stored in our database for station/object K7DC. If no packets are shown the sender has not sent any weather packets the latest 10 day(s).

<< 47 48 49 50 51 52 53 >>
Time Temp. Humidity Pressure Rain* Wind** Luminosity Snow
1788314726 30.56° C 45% 1015 hPa 0 mm - 0 W/m² -
1788314422 30.56° C 46% 1014.7 hPa 0 mm - 1 W/m² -
1788314117 31.11° C 45% 1014.6 hPa 0 mm - 1 W/m² -
1788313813 31.11° C 43% 1014.8 hPa 0 mm - 3 W/m² -
1788313509 31.11° C 43% 1014.7 hPa 0 mm - 5 W/m² -
1788313204 31.67° C 43% 1015 hPa 0 mm - 8 W/m² -
1788312899 31.67° C 43% 1014.8 hPa 0 mm - 13 W/m² -
1788312594 31.67° C 42% 1014.7 hPa 0 mm - 16 W/m² -
1788312294 31.67° C 42% 1014.7 hPa 0 mm - 20 W/m² -
1788311985 32.22° C 42% 1014.8 hPa 0 mm - 23 W/m² -
1788311680 32.22° C 42% 1014.8 hPa 0 mm - 25 W/m² -
1788311379 32.22° C 42% 1014.5 hPa 0 mm - 28 W/m² -
1788311075 32.22° C 41% 1014.5 hPa 0 mm - 31 W/m² -
1788310773 32.78° C 41% 1014.7 hPa 0 mm - 33 W/m² -
1788310473 32.78° C 41% 1014.5 hPa 0 mm - 35 W/m² -
1788310170 33.33° C 40% 1014.7 hPa 0 mm - 37 W/m² -
1788309869 33.89° C 38% 1014.6 hPa 0 mm - 38 W/m² -
1788309564 34.44° C 37% 1014.4 hPa 0 mm - 76 W/m² -
1788309264 34.44° C 36% 1014.6 hPa 0 mm - 82 W/m² -
1788308960 35° C 35% 1014.8 hPa 0 mm - 90 W/m² -
1788308655 35° C 35% 1014.6 hPa 0 mm - 98 W/m² -
1788308349 35° C 35% 1014.7 hPa 0 mm - 106 W/m² -
1788308049 35° C 34% 1014.7 hPa 0 mm - 115 W/m² -
1788307744 35.56° C 33% 1014.7 hPa 0 mm - 126 W/m² -
1788307439 35.56° C 33% 1014.8 hPa 0 mm - 137 W/m² -

* Rain latest hour (hover to see other rain measurements)
** Current wind speed in m/s (hover to see current wind gust speed)